Погода в Крукеничах

Украина / Львовская область     49°41′07″N   23°09′14″E
темп.,
°C
ветер,
м/с
пор.,
м/с
влажн.,
%
обл.,
%
осадки,
мм/ч
давл.,
гПа
погр.,
м
21 января, пт
пт2123:00−3з91682100 0.0 10121079
02:00−2зсз9157592 0.1 10131086
05:00−4з8148498 0.1 1013926
08:00−4з91583100 0.1 10151002
11:00−4з91591100 0.2 10161030
14:00−2зсз81389100 0.6 10151169
17:00−3зсз81480100 0.3 1015931
20:00−4зсз81485100 0.3 1015789
22 января, сб
сб2223:00−4зсз81392100 0.3 1016909
02:00−4зсз81294100 1.2 1015852
05:00−5зсз61291100 0.3 1016602
08:00−5з6129187 0.2 1015462
11:00−4зсз81495100 1.1 1016997
14:00−2ссз7109198 3.0 1018969
17:00−4сз5118574 0.2 1021329
20:00−4сз51291100 0.3 1023597
23 января, вс
вс2323:00−4зсз71393100 0.2 1024787
02:00−3зсз81495100 0.8 1023870
05:00−3ссз61197100 1.3 1024809
08:00−4с4996100 2.5 1026637
11:00−3ссз4994100 0.2 1028787
14:00−3с5890100 0.9 1028814
17:00−4с479498 0.4 1030363
20:00−10ссв229738 0.5 103325
24 января, пн
пн2423:00−13св119971 0.0 10359
02:00−14юв009992 0.0 10369
05:00−15юв019995 0.1 10379
08:00−15ю1110097 0.1 10389
11:00−10ююз119478 0.0 1038110
14:00−7юв00875 0.0 1037196
17:00−11юв11955 0.0 103710
20:00−15ю229857 0.0 103711
25 января, вт
вт2523:00−15ю229732 0.0 103715
02:00−16ю2297100 0.0 103514
05:00−15ююз229084 0.0 103414
08:00−9зюз2581100 0.0 103296
11:00−3зюз4896100 0.4 1030298
14:00−1з51197100 1.6 1027505
17:00−1з61397100 1.1 1026555
20:00−2з61297100 2.1 1027434